Location: Auckland
(36.8670°S, 174.7670°E)
Time: 09:10:55
(UTC+12:00)

NOSS 2-1 (E) - Pass Details

Date: 03 May 2019
Orbit: 471 x 1733 km, 63.3° (Epoch: 21 May)

Event Time Altitude Azimuth Distance (km) Brightness Sun altitude
Rises 19:05:20 0° 218° (SW) 4,818 8.6 -18.7°
Reaches altitude 10° 19:12:06 10° 186° (S) 3,536 7.4 -20.0°
Maximum altitude 19:14:25 11° 170° (S) 3,321 7.1 -20.5°
Drops below altitude 10° 19:16:35 10° 155° (SSE) 3,280 7.0 -20.9°
Enters shadow 19:17:13 - 150° (SSE) 3,300 6.9 -21.0°
